Location: ????????
(55.6189°N, 38.3031°E)
Time: 09:46:01
(UTC+00:00)

Cosmos 2322 Rocket - Pass Details

Date: 15 November 2019
Orbit: 832 x 851 km, 71.0° (Epoch: 14 December)

Event Time Altitude Azimuth Distance (km) Brightness Sun altitude
Exits shadow 03:47:33 10° 313° (NW) 2,477 4.1 -10.1°
Reaches altitude 10° 03:47:35 10° 313° (NW) 2,469 4.1 -10.1°
Maximum altitude 03:52:27 31° 253° (WSW) 1,451 3.0 -9.5°
Drops below altitude 10° 03:57:20 10° 193° (SSW) 2,466 4.7 -8.8°
Sets 04:00:01 0° 184° (S) 3,399 5.6 -8.5°
